Flag for Guadeloupe Weather past 2 weeks in Basse-Terre, Guadeloupe

Now
79 °F

Clear.


Feels Like: 81 °F
Forecast: 78 / 82 °F
Wind: 7 mph from East

Location: Le Raizet - Guadeloupe

Current Time: Jul 29, 2014 at 10:32:33 PM

Latest Report: Jul 29, 2014 at 10:00 PM


Visibility: N/A

Pressure: 30.04 "Hg

Humidity: 74%

Dew point: 70 °F

Location of Basse-TerreLocation

Historic Weather in Basse-Terre — Graph

°F

Basse-Terre temperature yesterday

Maximum temperature yesterday: 88 °F (at 11:00 AM)
Minimum temperature yesterday: 73 °F (at 5:00 AM)
Average temperature yesterday: 81 °F

Past Weeks' High & Low Weather Summary

 TemperatureHumidityPressure
High90 °F (Jul 16, 1:38 PM)94% (Jul 19, 6:30 AM)30.12 "Hg (Jul 19, 6:30 AM)
Low73 °F (Jul 18, 6:30 AM)43% (Jul 29, 3:30 PM)29.95 "Hg (Jul 24, 4:30 AM)
Average82 °F72%30.05 "Hg
* Reported Jul 14 9:00 PM — Jul 29 9:00 PM, Basse-Terre, Weather by CustomWeather, © 2014

Note: Actual official high and low records may vary slightly from our data, if they occured in-between our weather recording intervals... More about our weather records

Advertising

Basse-Terre weather history for previous 24 hours

 ConditionsComfort  
Time TempWeatherWind HumidityBarometerVisibility
9:00 PM
Jul 29
79 °FPassing clouds.6 mph74%30.04 "HgN/A
8:30 PM81 °FOvercast.6 mph70%30.04 "HgN/A
6:52 PM82 °FPassing clouds.8 mph62%30.01 "HgN/A
6:30 PM82 °FPartly sunny.13 mph66%29.98 "HgN/A
6:00 PM84 °FPartly sunny.9 mph58%29.98 "HgN/A
5:30 PM84 °FScattered clouds.9 mph55%29.98 "HgN/A
5:09 PM84 °FScattered clouds.12 mph55%29.98 "HgN/A
4:30 PM86 °FScattered clouds.13 mph52%29.98 "HgN/A
4:00 PM86 °FScattered clouds.12 mph55%29.98 "HgN/A
3:30 PM88 °FScattered clouds.12 mph43%29.98 "HgN/A
3:00 PM88 °FScattered clouds.10 mph49%29.98 "HgN/A
2:30 PM88 °FScattered clouds.12 mph49%30.01 "HgN/A
1:30 PM88 °FScattered clouds.13 mph52%30.01 "HgN/A
1:00 PM88 °FScattered clouds.14 mph52%30.01 "HgN/A
12:30 PM88 °FScattered clouds.13 mph52%30.04 "HgN/A
12:00 PM88 °FScattered clouds.13 mph52%30.04 "HgN/A
11:34 AM86 °FPartly sunny.12 mph55%30.04 "HgN/A
11:00 AM86 °FPartly sunny.14 mph55%30.04 "HgN/A
10:30 AM86 °FPartly sunny.12 mph59%30.04 "HgN/A
10:00 AM84 °FScattered clouds.12 mph62%30.04 "HgN/A
9:30 AM86 °FScattered clouds.12 mph59%30.04 "HgN/A
9:00 AM84 °FPassing clouds.13 mph62%30.04 "HgN/A
8:30 AM84 °FPassing clouds.13 mph62%30.04 "HgN/A
8:00 AM82 °FPassing clouds.12 mph66%30.04 "HgN/A
7:43 AM82 °FPassing clouds.10 mph66%30.04 "HgN/A
7:00 AM81 °FClear.2 mph70%30.04 "HgN/A
6:30 AM77 °FPassing clouds.No wind79%30.04 "HgN/A
6:00 AM75 °FPassing clouds.No wind83%30.01 "HgN/A
5:30 AM75 °FPassing clouds.2 mph78%30.01 "HgN/A
5:00 AM75 °FClear.5 mph78%30.01 "HgN/A
4:30 AM75 °FPassing clouds.5 mph78%30.01 "HgN/A
4:00 AM77 °FPartly cloudy.9 mph79%30.01 "HgN/A
3:30 AM75 °FMild.1 mph89%30.01 "HgN/A
3:00 AM77 °FClear.2 mph83%30.01 "HgN/A
2:30 AM77 °FPassing clouds.3 mph83%30.01 "HgN/A
2:00 AM75 °FPassing clouds.2 mph89%30.01 "HgN/A
1:30 AM77 °FClear.1 mph83%30.04 "HgN/A
1:00 AM77 °FClear.2 mph83%30.04 "HgN/A
12:30 AM77 °FClear.2 mph83%30.04 "HgN/A
12:00 AM77 °FPassing clouds.2 mph83%30.04 "HgN/A
11:30 PM
Jul 28
77 °FClear.3 mph83%30.04 "HgN/A
11:00 PM79 °FClear.3 mph74%30.07 "HgN/A
10:30 PM79 °FClear.3 mph79%30.07 "HgN/A
10:00 PM79 °FClear.5 mph74%30.07 "HgN/A
Weather by CustomWeather, © 2014

See weather overviewHow to use our weather pages